Terminal Aerodrome Forecast
Issued by NWS Cheyenne, WY

Home | Current Version | Previous Version | Text Only | Print | Product List | Glossary On
Versions: 1 2 3 4 5 6 7 8 9 10 11 12 13 14 15 16 17 18 19 20 21 22 23 24 25 26 27 28 29 30 31 32 33 34 35
000
FTUS45 KCYS 241700
TAFCYS
TAF
KCYS 241725Z 2418/2518 27024G32KT P6SM SCT120
     FM250200 28012KT P6SM FEW100=

USA.gov is the U.S. government's official web portal to all federal, state and local government web resources and services.